Location: Unspecified
(48.2082°N, 0.0000°E)
Time: 21:24:51
(UTC+00:00)

Tiros 1 despin weight - Pass Details

Date: 21 June 2019
Orbit: 593 x 643 km, 48.2° (Epoch: 22 October)

Event Time Altitude Azimuth Distance (km) Brightness Sun altitude
Rises 02:48:09 0° 273° (W) 2,832 ? -9.2°
Reaches altitude 10° 02:50:26 10° 274° (W) 1,927 ? -9.0°
Maximum altitude 02:54:51 89° 191° (S) 599 ? -8.5°
Drops below altitude 10° 02:59:17 10° 96° (E) 1,927 ? -8.1°
Sets 03:01:34 0° 96° (E) 2,832 ? -7.8°
